TimeEDT,TemperatureF,Dew PointF,Humidity,Sea Level PressureIn,VisibilityMPH,Wind Direction,Wind SpeedMPH,Gust SpeedMPH,PrecipitationIn,Events,Conditions,WindDirDegrees,DateUTC
12:15 AM,46.4,44.6,93,30.12,10.0,Calm,Calm,-,N/A,,Overcast,0,2012-10-08 04:15:00
12:35 AM,46.4,44.6,93,30.11,10.0,Calm,Calm,-,N/A,,Overcast,0,2012-10-08 04:35:00
12:55 AM,46.4,44.6,93,30.11,10.0,Calm,Calm,-,N/A,,Overcast,0,2012-10-08 04:55:00
1:15 AM,46.4,42.8,87,30.11,10.0,Calm,Calm,-,N/A,,Overcast,0,2012-10-08 05:15:00
1:35 AM,46.4,44.6,93,30.11,10.0,Calm,Calm,-,N/A,,Overcast,0,2012-10-08 05:35:00
1:55 AM,46.4,44.6,93,30.11,7.0,Calm,Calm,-,N/A,,Overcast,0,2012-10-08 05:55:00
2:15 AM,46.4,44.6,93,30.11,7.0,Calm,Calm,-,N/A,,Overcast,0,2012-10-08 06:15:00
2:35 AM,46.4,44.6,93,30.11,7.0,Calm,Calm,-,N/A,,Overcast,0,2012-10-08 06:35:00
2:55 AM,46.4,46.4,100,30.13,7.0,Calm,Calm,-,N/A,,Overcast,0,2012-10-08 06:55:00
3:15 AM,46.4,46.4,100,30.12,10.0,Calm,Calm,-,N/A,,Overcast,0,2012-10-08 07:15:00
3:35 AM,46.4,46.4,100,30.12,5.0,Calm,Calm,-,N/A,,Overcast,0,2012-10-08 07:35:00
3:55 AM,46.4,46.4,100,30.11,5.0,Calm,Calm,-,N/A,,Overcast,0,2012-10-08 07:55:00
4:15 AM,46.4,46.4,100,30.11,3.0,Calm,Calm,-,N/A,,Overcast,0,2012-10-08 08:15:00
4:35 AM,46.4,46.4,100,30.11,3.0,Calm,Calm,-,N/A,,Overcast,0,2012-10-08 08:35:00
4:55 AM,46.4,46.4,100,30.11,4.0,Calm,Calm,-,N/A,,Overcast,0,2012-10-08 08:55:00
5:15 AM,46.4,46.4,100,30.11,2.5,Calm,Calm,-,N/A,,Overcast,0,2012-10-08 09:15:00
5:35 AM,46.4,46.4,100,30.11,2.5,Calm,Calm,-,N/A,,Drizzle,0,2012-10-08 09:35:00
5:55 AM,46.4,46.4,100,30.11,3.0,Calm,Calm,-,N/A,,Light Drizzle,0,2012-10-08 09:55:00
6:15 AM,46.4,46.4,100,30.11,4.0,Calm,Calm,-,N/A,,Overcast,0,2012-10-08 10:15:00
6:35 AM,46.4,46.4,100,30.11,4.0,Calm,Calm,-,N/A,,Overcast,0,2012-10-08 10:35:00
6:55 AM,46.4,46.4,100,30.11,3.0,Calm,Calm,-,N/A,,Overcast,0,2012-10-08 10:55:00
7:15 AM,46.4,46.4,100,30.10,3.0,Calm,Calm,-,N/A,,Overcast,0,2012-10-08 11:15:00
7:35 AM,46.4,46.4,100,30.10,4.0,Calm,Calm,-,N/A,,Overcast,0,2012-10-08 11:35:00
7:55 AM,46.4,46.4,100,30.11,5.0,Calm,Calm,-,N/A,,Overcast,0,2012-10-08 11:55:00
8:15 AM,46.4,46.4,100,30.12,7.0,Calm,Calm,-,N/A,,Overcast,0,2012-10-08 12:15:00
8:35 AM,46.4,46.4,100,30.13,10.0,Calm,Calm,-,N/A,,Overcast,0,2012-10-08 12:35:00
8:55 AM,48.2,48.2,100,30.15,10.0,Calm,Calm,-,N/A,,Overcast,0,2012-10-08 12:55:00
9:15 AM,48.2,48.2,100,30.15,10.0,Calm,Calm,-,N/A,,Overcast,0,2012-10-08 13:15:00
9:35 AM,50.0,48.2,94,30.15,10.0,Calm,Calm,-,N/A,,Overcast,0,2012-10-08 13:35:00
9:55 AM,50.0,50.0,100,30.15,10.0,Calm,Calm,-,N/A,,Overcast,0,2012-10-08 13:55:00
10:15 AM,50.0,50.0,100,30.16,10.0,Calm,Calm,-,N/A,,Overcast,0,2012-10-08 14:15:00
10:35 AM,50.0,46.4,87,30.17,10.0,Calm,Calm,-,N/A,,Overcast,0,2012-10-08 14:35:00
10:55 AM,50.0,46.4,87,30.17,10.0,Calm,Calm,-,N/A,,Overcast,0,2012-10-08 14:55:00
11:15 AM,50.0,46.4,87,30.16,10.0,Calm,Calm,-,N/A,,Overcast,0,2012-10-08 15:15:00
11:35 AM,50.0,44.6,82,30.17,10.0,Calm,Calm,-,N/A,,Overcast,0,2012-10-08 15:35:00
11:55 AM,50.0,44.6,82,30.17,5.0,Calm,Calm,-,N/A,,Haze,0,2012-10-08 15:55:00
12:15 PM,50.0,46.4,87,30.18,2.5,Calm,Calm,-,N/A,Rain,Rain,0,2012-10-08 16:15:00
12:35 PM,48.2,48.2,100,30.17,2.0,Calm,Calm,-,N/A,,Drizzle,0,2012-10-08 16:35:00
12:55 PM,48.2,48.2,100,30.17,1.8,Calm,Calm,-,0.01,,Light Drizzle,0,2012-10-08 16:55:00
1:15 PM,48.2,48.2,100,30.16,2.5,Calm,Calm,-,N/A,,Overcast,0,2012-10-08 17:15:00
1:55 PM,50.0,50.0,100,30.14,7.0,Calm,Calm,-,N/A,,Overcast,0,2012-10-08 17:55:00
2:15 PM,50.0,50.0,100,30.12,10.0,Calm,Calm,-,N/A,,Light Drizzle,0,2012-10-08 18:15:00
2:35 PM,50.0,50.0,100,30.11,10.0,Calm,Calm,-,N/A,,Overcast,0,2012-10-08 18:35:00
2:55 PM,50.0,50.0,100,30.11,10.0,Calm,Calm,-,N/A,,Overcast,0,2012-10-08 18:55:00
3:15 PM,50.0,50.0,100,30.11,10.0,Calm,Calm,-,N/A,,Overcast,0,2012-10-08 19:15:00
3:35 PM,50.0,50.0,100,30.10,10.0,Calm,Calm,-,N/A,,Overcast,0,2012-10-08 19:35:00
3:55 PM,51.8,50.0,94,30.10,10.0,Calm,Calm,-,N/A,,Overcast,0,2012-10-08 19:55:00
4:15 PM,51.8,46.4,82,30.10,10.0,Calm,Calm,-,N/A,,Overcast,0,2012-10-08 20:15:00
4:35 PM,51.8,46.4,82,30.09,10.0,Calm,Calm,-,N/A,,Overcast,0,2012-10-08 20:35:00
4:55 PM,51.8,46.4,82,30.10,10.0,Calm,Calm,-,N/A,,Overcast,0,2012-10-08 20:55:00
5:15 PM,51.8,46.4,82,30.10,10.0,Calm,Calm,-,N/A,,Overcast,0,2012-10-08 21:15:00
5:35 PM,51.8,48.2,88,30.10,10.0,Calm,Calm,-,N/A,,Overcast,0,2012-10-08 21:35:00
5:55 PM,51.8,48.2,88,30.10,7.0,Calm,Calm,-,N/A,,Overcast,0,2012-10-08 21:55:00
6:15 PM,51.8,48.2,88,30.10,10.0,Calm,Calm,-,N/A,,Overcast,0,2012-10-08 22:15:00
6:35 PM,51.8,50.0,94,30.11,4.0,Calm,Calm,-,N/A,,Overcast,0,2012-10-08 22:35:00
6:55 PM,50.0,50.0,100,30.11,7.0,Calm,Calm,-,N/A,,Overcast,0,2012-10-08 22:55:00
7:15 PM,50.0,50.0,100,30.11,10.0,Calm,Calm,-,N/A,,Overcast,0,2012-10-08 23:15:00
7:35 PM,50.0,50.0,100,30.10,10.0,Calm,Calm,-,N/A,,Overcast,0,2012-10-08 23:35:00
7:55 PM,50.0,50.0,100,30.10,7.0,Calm,Calm,-,N/A,,Overcast,0,2012-10-08 23:55:00
8:35 PM,50.0,50.0,100,30.11,5.0,Calm,Calm,-,N/A,,Overcast,0,2012-10-09 00:35:00
9:15 PM,50.0,50.0,100,30.12,7.0,Calm,Calm,-,N/A,,Overcast,0,2012-10-09 01:15:00
9:55 PM,50.0,48.2,94,30.13,10.0,Calm,Calm,-,N/A,,Overcast,0,2012-10-09 01:55:00
10:15 PM,50.0,50.0,100,30.13,10.0,Calm,Calm,-,N/A,,Overcast,0,2012-10-09 02:15:00
10:35 PM,50.0,50.0,100,30.14,10.0,Calm,Calm,-,N/A,,Overcast,0,2012-10-09 02:35:00
10:55 PM,48.2,48.2,100,30.14,10.0,Calm,Calm,-,N/A,,Overcast,0,2012-10-09 02:55:00
11:15 PM,48.2,48.2,100,30.14,10.0,Calm,Calm,-,N/A,,Overcast,0,2012-10-09 03:15:00
11:55 PM,48.2,46.4,93,30.14,10.0,Calm,Calm,-,N/A,,Overcast,0,2012-10-09 03:55:00